This is the latest recevied weather packets stored in our database for station/object SV9TNF-1. If no packets are shown the sender has not sent any weather packets the latest 10 day(s).
| Time | Temp. | Humidity | Pressure | Rain* | Wind** | Luminosity | Snow |
|---|---|---|---|---|---|---|---|
| 1777895123 | 19.44° C | 41% | 1008.8 hPa | 0 mm | 6.71 m/s, 319° | - | - |
| 1777894822 | 19.44° C | 41% | 1008.8 hPa | 0 mm | 14.75 m/s, 327° | - | - |
| 1777894523 | 19.44° C | 42% | 1008.5 hPa | 0 mm | 10.73 m/s, 326° | - | - |
| 1777894222 | 19.44° C | 39% | 1008.5 hPa | 0 mm | 13.41 m/s, 316° | - | - |
| 1777893922 | 20° C | 36% | 1008.5 hPa | 0 mm | 5.81 m/s, 0° | - | - |
| 1777893622 | 20° C | 38% | 1008.8 hPa | 0 mm | 3.13 m/s, 316° | - | - |
| 1777893322 | 19.44° C | 35% | 1008.8 hPa | 0 mm | 8.94 m/s, 320° | - | - |
| 1777893022 | 19.44° C | 36% | 1008.8 hPa | 0 mm | 11.62 m/s, 319° | - | - |
| 1777892722 | 19.44° C | 40% | 1008.8 hPa | 0 mm | 6.26 m/s, 337° | - | - |
| 1777892422 | 19.44° C | 39% | 1008.8 hPa | 0 mm | 7.6 m/s, 327° | - | - |
| 1777892122 | 19.44° C | 40% | 1008.8 hPa | 0 mm | 8.05 m/s, 331° | - | - |
| 1777891822 | 20.56° C | 40% | 1008.8 hPa | 0 mm | 8.94 m/s, 358° | - | - |
| 1777891521 | 19.44° C | 41% | 1008.8 hPa | 0 mm | 8.05 m/s, 340° | - | - |
| 1777891221 | 19.44° C | 42% | 1008.8 hPa | 0 mm | 4.47 m/s, 307° | - | - |
| 1777890921 | 19.44° C | 39% | 1008.8 hPa | 0 mm | 10.73 m/s, 329° | - | - |
| 1777890621 | 20° C | 41% | 1008.8 hPa | 0 mm | 6.71 m/s, 95° | - | - |
| 1777890321 | 19.44° C | 39% | 1008.8 hPa | 0 mm | 7.15 m/s, 347° | - | - |
| 1777890021 | 19.44° C | 40% | 1008.8 hPa | 0 mm | 5.81 m/s, 340° | - | - |
| 1777889721 | 18.33° C | 42% | 1008.8 hPa | 0 mm | 5.81 m/s, 140° | - | - |
| 1777889420 | 18.89° C | 43% | 1008.8 hPa | 0 mm | 5.81 m/s, 332° | - | - |
| 1777889121 | 18.89° C | 43% | 1008.8 hPa | 0 mm | 6.71 m/s, 333° | - | - |
| 1777888821 | 19.44° C | 41% | 1008.8 hPa | 0 mm | 1.34 m/s, 321° | - | - |
| 1777888521 | 19.44° C | 44% | 1008.8 hPa | 0 mm | 3.13 m/s, 145° | - | - |
| 1777888220 | 18.89° C | 43% | 1008.8 hPa | 0 mm | 6.26 m/s, 150° | - | - |
| 1777887920 | 18.89° C | 45% | 1008.8 hPa | 0 mm | 10.28 m/s, 318° | - | - |
* Rain latest hour (hover to see other rain measurements)
** Current wind speed in m/s (hover to see current wind gust speed)